Location: Auckland
(36.8670°S, 174.7670°E)
Time: 03:20:13
(UTC+13:00)

Cosmos 2208 Rocket - Pass Details

Date: 24 January 2019
Orbit: 755 x 805 km, 74.0° (Epoch: 14 October)

Event Time Altitude Azimuth Distance (km) Brightness Sun altitude
Rises 21:58:49 0° 199° (SSW) 3,249 8.3 -14.6°
Reaches altitude 10° 22:01:11 10° 199° (SSW) 2,320 7.4 -14.9°
Maximum altitude 22:06:28 84° 286° (WNW) 782 4.0 -15.7°
Enters shadow 22:10:14 20° 13° (NNE) 1,747 5.4 -16.3°
